TimeCDT,TemperatureF,Dew PointF,Humidity,Sea Level PressureIn,VisibilityMPH,Wind Direction,Wind SpeedMPH,Gust SpeedMPH,PrecipitationIn,Events,Conditions,WindDirDegrees,DateUTC
12:15 AM,71.2,70.7,98,29.91,7.0,South,6.9,-,N/A,,Mostly Cloudy,170,2013-10-01 05:15:00
12:35 AM,70.9,70.7,99,29.91,7.0,SSE,5.8,-,N/A,,Mostly Cloudy,160,2013-10-01 05:35:00
12:55 AM,70.9,70.7,99,29.91,7.0,SSE,3.5,-,N/A,,Mostly Cloudy,150,2013-10-01 05:55:00
1:15 AM,71.2,70.7,98,29.92,7.0,SSE,3.5,-,N/A,,Overcast,160,2013-10-01 06:15:00
1:35 AM,71.1,70.7,99,29.92,7.0,SSE,4.6,-,N/A,,Overcast,160,2013-10-01 06:35:00
1:55 AM,70.7,70.2,98,29.92,7.0,SSE,4.6,-,N/A,,Overcast,160,2013-10-01 06:55:00
2:15 AM,70.2,69.8,99,29.92,5.0,Calm,Calm,-,N/A,,Overcast,0,2013-10-01 07:15:00
2:35 AM,70.3,70.2,99,29.92,7.0,SE,3.5,-,N/A,,Overcast,140,2013-10-01 07:35:00
2:55 AM,70.3,70.0,99,29.92,7.0,SE,5.8,-,N/A,,Overcast,140,2013-10-01 07:55:00
3:15 AM,70.7,70.2,98,29.92,7.0,SE,4.6,-,N/A,,Overcast,130,2013-10-01 08:15:00
3:35 AM,70.9,70.2,98,29.92,7.0,SSE,3.5,-,N/A,,Overcast,150,2013-10-01 08:35:00
3:55 AM,71.1,70.3,98,29.93,7.0,SE,4.6,-,N/A,,Overcast,140,2013-10-01 08:55:00
4:15 AM,71.2,70.7,98,29.93,7.0,SE,4.6,-,N/A,,Overcast,140,2013-10-01 09:15:00
4:35 AM,71.6,70.7,97,29.93,7.0,SE,4.6,-,N/A,,Overcast,130,2013-10-01 09:35:00
4:55 AM,71.6,70.7,97,29.93,7.0,SE,5.8,-,N/A,,Overcast,130,2013-10-01 09:55:00
5:15 AM,71.1,70.3,98,29.94,7.0,ESE,3.5,-,N/A,,Overcast,110,2013-10-01 10:15:00
5:35 AM,70.9,70.0,97,29.95,7.0,ESE,3.5,-,N/A,,Overcast,120,2013-10-01 10:35:00
5:55 AM,70.3,69.8,98,29.95,7.0,SE,3.5,-,N/A,,Overcast,140,2013-10-01 10:55:00
6:15 AM,70.2,69.8,99,29.96,7.0,SSE,4.6,-,N/A,,Overcast,150,2013-10-01 11:15:00
6:35 AM,70.0,69.4,98,29.96,7.0,SE,3.5,-,N/A,,Overcast,140,2013-10-01 11:35:00
6:55 AM,70.3,69.8,98,29.97,7.0,SE,3.5,-,N/A,,Overcast,130,2013-10-01 11:55:00
7:15 AM,70.7,69.8,97,29.98,5.0,ESE,4.6,-,N/A,,Overcast,120,2013-10-01 12:15:00
7:35 AM,70.7,70.0,98,29.98,5.0,SE,5.8,-,N/A,,Overcast,140,2013-10-01 12:35:00
7:55 AM,70.9,70.3,98,29.98,4.0,ESE,3.5,-,N/A,,Overcast,120,2013-10-01 12:55:00
8:15 AM,71.6,70.7,97,29.99,4.0,SE,4.6,-,N/A,,Overcast,130,2013-10-01 13:15:00
8:35 AM,72.1,71.1,96,29.99,4.0,ESE,4.6,-,N/A,,Overcast,120,2013-10-01 13:35:00
8:55 AM,72.9,71.4,95,29.99,4.0,ESE,4.6,-,N/A,,Overcast,120,2013-10-01 13:55:00
9:15 AM,73.6,72.0,95,30.00,5.0,SE,6.9,-,N/A,,Overcast,130,2013-10-01 14:15:00
9:35 AM,74.3,72.1,93,30.01,5.0,SE,6.9,-,N/A,,Overcast,140,2013-10-01 14:35:00
9:55 AM,75.4,72.5,91,30.01,7.0,SSE,6.9,-,N/A,,Overcast,150,2013-10-01 14:55:00
10:15 AM,75.4,72.1,90,30.01,7.0,SE,5.8,-,N/A,,Overcast,130,2013-10-01 15:15:00
10:35 AM,76.6,72.5,87,30.01,7.0,SSE,6.9,-,N/A,,Overcast,150,2013-10-01 15:35:00
10:55 AM,78.4,73.0,83,30.01,10.0,South,5.8,-,N/A,,Overcast,180,2013-10-01 15:55:00
11:15 AM,80.4,73.6,80,30.00,10.0,SE,3.5,-,N/A,,Mostly Cloudy,130,2013-10-01 16:15:00
11:35 AM,80.8,73.4,78,30.00,10.0,East,6.9,-,N/A,,Mostly Cloudy,100,2013-10-01 16:35:00
11:55 AM,82.8,73.6,74,30.00,10.0,SE,8.1,16.1,N/A,,Mostly Cloudy,140,2013-10-01 16:55:00
12:15 PM,83.8,72.7,69,29.99,10.0,SE,8.1,-,N/A,,Scattered Clouds,140,2013-10-01 17:15:00
12:35 PM,83.7,72.7,69,29.99,10.0,SSE,6.9,-,N/A,,Mostly Cloudy,160,2013-10-01 17:35:00
12:55 PM,83.5,72.1,69,29.98,10.0,South,8.1,-,N/A,,Mostly Cloudy,170,2013-10-01 17:55:00
1:15 PM,85.8,73.0,65,29.98,10.0,SSE,11.5,-,N/A,,Scattered Clouds,150,2013-10-01 18:15:00
1:35 PM,86.2,72.9,64,29.97,10.0,SSE,10.4,-,N/A,,Scattered Clouds,150,2013-10-01 18:35:00
1:55 PM,86.4,71.6,61,29.96,10.0,South,8.1,-,N/A,,Scattered Clouds,180,2013-10-01 18:55:00
2:15 PM,87.3,71.2,59,29.95,10.0,SSE,10.4,17.3,N/A,,Scattered Clouds,160,2013-10-01 19:15:00
2:35 PM,86.9,72.1,61,29.94,10.0,SE,9.2,-,N/A,,Scattered Clouds,130,2013-10-01 19:35:00
2:55 PM,87.8,72.0,59,29.94,10.0,SSE,10.4,-,N/A,,Scattered Clouds,160,2013-10-01 19:55:00
3:15 PM,87.1,72.3,61,29.93,10.0,SE,8.1,-,N/A,,Scattered Clouds,130,2013-10-01 20:15:00
3:35 PM,87.6,72.0,60,29.93,10.0,SSE,10.4,-,N/A,,Scattered Clouds,150,2013-10-01 20:35:00
3:55 PM,87.6,70.7,57,29.93,10.0,South,6.9,-,N/A,,Scattered Clouds,170,2013-10-01 20:55:00
4:15 PM,85.5,70.9,62,29.93,10.0,SSE,9.2,-,N/A,,Scattered Clouds,150,2013-10-01 21:15:00
4:35 PM,86.5,71.6,61,29.94,10.0,SSE,15.0,21.9,N/A,Thunderstorm,Mostly Cloudy,160,2013-10-01 21:35:00
4:55 PM,81.7,70.2,68,29.95,10.0,South,16.1,-,N/A,Thunderstorm,Mostly Cloudy,170,2013-10-01 21:55:00
5:15 PM,78.6,68.9,72,29.95,10.0,South,15.0,-,N/A,Thunderstorm,Thunderstorm,170,2013-10-01 22:15:00
5:35 PM,76.6,70.0,80,29.95,10.0,SSW,8.1,11.5,N/A,Thunderstorm,Thunderstorm,200,2013-10-01 22:35:00
5:55 PM,75.4,70.3,84,29.96,10.0,SE,4.6,-,N/A,Thunderstorm,Clear,130,2013-10-01 22:55:00
6:15 PM,75.2,70.7,86,29.96,10.0,SSE,3.5,-,N/A,,Clear,150,2013-10-01 23:15:00
6:35 PM,74.5,70.7,88,29.95,10.0,South,3.5,-,N/A,,Clear,190,2013-10-01 23:35:00
6:55 PM,74.3,70.7,88,29.96,10.0,ESE,6.9,-,N/A,Thunderstorm,Scattered Clouds,120,2013-10-01 23:55:00
7:15 PM,74.5,70.2,86,29.98,10.0,SE,5.8,-,N/A,Thunderstorm,Scattered Clouds,140,2013-10-02 00:15:00
7:35 PM,73.8,70.5,90,29.97,10.0,SSE,5.8,-,N/A,,Clear,150,2013-10-02 00:35:00
7:55 PM,73.4,70.5,91,29.98,10.0,Calm,Calm,-,N/A,,Clear,0,2013-10-02 00:55:00
8:15 PM,72.9,70.7,93,29.98,10.0,Calm,Calm,-,N/A,,Clear,0,2013-10-02 01:15:00
8:35 PM,73.2,70.7,92,29.98,10.0,ESE,4.6,-,N/A,Thunderstorm,Clear,110,2013-10-02 01:35:00
8:55 PM,73.4,70.9,92,29.99,10.0,ESE,4.6,-,N/A,,Clear,110,2013-10-02 01:55:00
9:15 PM,73.4,70.9,92,30.00,10.0,ESE,4.6,-,N/A,,Clear,110,2013-10-02 02:15:00
9:35 PM,73.4,71.1,92,29.99,10.0,ESE,4.6,-,N/A,,Scattered Clouds,120,2013-10-02 02:35:00
9:55 PM,73.2,71.2,93,29.99,10.0,SE,5.8,-,N/A,,Clear,140,2013-10-02 02:55:00
10:15 PM,73.0,71.6,95,29.99,10.0,SE,5.8,-,N/A,,Clear,130,2013-10-02 03:15:00
10:35 PM,73.4,71.6,94,29.99,10.0,SE,6.9,-,N/A,,Clear,140,2013-10-02 03:35:00
10:55 PM,73.2,71.6,95,29.98,10.0,SE,6.9,-,N/A,,Clear,130,2013-10-02 03:55:00
11:15 PM,72.5,71.2,96,29.98,10.0,SSE,4.6,-,N/A,,Clear,160,2013-10-02 04:15:00
11:35 PM,72.5,71.1,95,29.99,10.0,SSE,3.5,-,N/A,,Clear,160,2013-10-02 04:35:00
11:55 PM,71.6,70.7,97,29.99,10.0,Calm,Calm,-,N/A,,Clear,0,2013-10-02 04:55:00